TimeCDT,TemperatureF,Dew PointF,Humidity,Sea Level PressureIn,VisibilityMPH,Wind Direction,Wind SpeedMPH,Gust SpeedMPH,PrecipitationIn,Events,Conditions,WindDirDegrees,DateUTC
12:15 AM,44.6,44.6,100,30.01,0.2,Calm,Calm,-,N/A,Fog,Fog,0,2013-04-28 05:15:00
12:35 AM,42.8,42.8,100,30.01,0.2,Calm,Calm,-,N/A,Fog,Fog,0,2013-04-28 05:35:00
12:55 AM,42.8,42.8,100,30.01,0.2,Calm,Calm,-,N/A,Fog,Fog,0,2013-04-28 05:55:00
1:15 AM,42.8,42.8,100,30.00,0.2,Calm,Calm,-,N/A,Fog,Fog,0,2013-04-28 06:15:00
1:35 AM,42.8,42.8,100,30.00,0.2,Calm,Calm,-,N/A,Fog,Fog,0,2013-04-28 06:35:00
1:55 AM,41.0,41.0,100,29.99,0.2,Calm,Calm,-,N/A,Fog,Fog,0,2013-04-28 06:55:00
2:15 AM,41.0,41.0,100,29.99,0.2,Calm,Calm,-,N/A,Fog,Fog,0,2013-04-28 07:15:00
2:35 AM,41.0,41.0,100,29.99,0.2,Calm,Calm,-,N/A,Fog,Fog,0,2013-04-28 07:35:00
2:55 AM,41.0,41.0,100,29.98,0.2,Calm,Calm,-,N/A,Fog,Fog,0,2013-04-28 07:55:00
3:15 AM,41.0,41.0,100,29.99,0.2,Calm,Calm,-,N/A,Fog,Fog,0,2013-04-28 08:15:00
3:35 AM,41.0,41.0,100,29.98,0.2,Calm,Calm,-,N/A,Fog,Fog,0,2013-04-28 08:35:00
3:55 AM,41.0,41.0,100,29.97,0.2,Calm,Calm,-,N/A,Fog,Fog,0,2013-04-28 08:55:00
4:15 AM,41.0,41.0,100,29.97,0.2,Calm,Calm,-,N/A,Fog,Fog,0,2013-04-28 09:15:00
4:35 AM,41.0,41.0,100,29.97,0.2,Calm,Calm,-,N/A,Fog,Fog,0,2013-04-28 09:35:00
4:55 AM,41.0,41.0,100,29.99,0.2,Calm,Calm,-,N/A,Fog,Fog,0,2013-04-28 09:55:00
5:15 AM,41.0,41.0,100,29.99,0.2,Calm,Calm,-,N/A,Fog,Fog,0,2013-04-28 10:15:00
5:35 AM,41.0,41.0,100,29.99,0.2,Calm,Calm,-,N/A,Fog,Fog,0,2013-04-28 10:35:00
5:55 AM,41.0,41.0,100,29.99,0.2,Calm,Calm,-,N/A,Fog,Fog,0,2013-04-28 10:55:00
6:15 AM,39.2,39.2,100,29.98,0.2,Calm,Calm,-,N/A,Fog,Fog,0,2013-04-28 11:15:00
6:35 AM,39.2,39.2,100,29.99,0.2,Calm,Calm,-,N/A,Fog,Fog,0,2013-04-28 11:35:00
6:55 AM,39.2,39.2,100,29.99,0.2,Calm,Calm,-,N/A,Fog,Fog,0,2013-04-28 11:55:00
7:15 AM,39.2,39.2,100,29.99,0.2,Calm,Calm,-,N/A,Fog,Fog,0,2013-04-28 12:15:00
7:35 AM,39.2,39.2,100,29.99,0.2,Calm,Calm,-,N/A,Fog,Fog,0,2013-04-28 12:35:00
7:55 AM,39.2,39.2,100,30.00,0.2,Calm,Calm,-,N/A,Fog,Fog,0,2013-04-28 12:55:00
8:15 AM,41.0,41.0,100,30.00,0.2,Calm,Calm,-,N/A,Fog,Fog,0,2013-04-28 13:15:00
8:35 AM,42.8,42.8,100,29.99,0.2,Calm,Calm,-,N/A,Fog,Fog,0,2013-04-28 13:35:00
8:55 AM,42.8,42.8,100,29.99,0.2,Calm,Calm,-,N/A,Fog,Fog,0,2013-04-28 13:55:00
9:15 AM,44.6,44.6,100,29.99,0.8,Calm,Calm,-,N/A,,Overcast,0,2013-04-28 14:15:00
9:35 AM,46.4,46.4,100,29.98,0.8,ESE,3.5,-,N/A,,Overcast,120,2013-04-28 14:35:00
9:55 AM,50.0,50.0,100,29.98,5.0,East,3.5,-,N/A,,Mostly Cloudy,100,2013-04-28 14:55:00
10:15 AM,51.8,51.8,100,29.98,10.0,SE,3.5,-,N/A,,Scattered Clouds,140,2013-04-28 15:15:00
10:35 AM,53.6,53.6,100,29.97,10.0,SSE,4.6,-,N/A,,Clear,150,2013-04-28 15:35:00
10:55 AM,53.6,53.6,100,29.97,10.0,South,4.6,-,N/A,,Clear,170,2013-04-28 15:55:00
11:15 AM,55.4,55.4,100,29.97,10.0,SSE,6.9,-,N/A,,Clear,160,2013-04-28 16:15:00
11:35 AM,57.2,55.4,94,29.97,10.0,South,6.9,-,N/A,,Clear,180,2013-04-28 16:35:00
11:55 AM,60.8,53.6,77,29.96,10.0,WSW,6.9,-,N/A,,Scattered Clouds,250,2013-04-28 16:55:00
12:15 PM,62.6,51.8,68,29.95,10.0,South,6.9,-,N/A,,Scattered Clouds,180,2013-04-28 17:15:00
12:35 PM,62.6,51.8,68,29.95,10.0,WSW,6.9,-,N/A,,Clear,250,2013-04-28 17:35:00
12:55 PM,64.4,51.8,64,29.94,10.0,South,9.2,-,N/A,,Clear,190,2013-04-28 17:55:00
1:15 PM,64.4,51.8,64,29.93,10.0,SSW,9.2,-,N/A,,Clear,200,2013-04-28 18:15:00
1:35 PM,66.2,51.8,60,29.92,10.0,South,5.8,-,N/A,,Clear,190,2013-04-28 18:35:00
1:55 PM,68.0,51.8,56,29.92,10.0,SW,8.1,-,N/A,,Clear,220,2013-04-28 18:55:00
2:15 PM,68.0,50.0,52,29.91,10.0,SSW,6.9,-,N/A,,Clear,200,2013-04-28 19:15:00
2:35 PM,68.0,51.8,56,29.90,10.0,South,8.1,-,N/A,,Clear,180,2013-04-28 19:35:00
2:55 PM,69.8,51.8,53,29.89,10.0,South,9.2,-,N/A,,Clear,190,2013-04-28 19:55:00
3:15 PM,69.8,51.8,53,29.88,10.0,South,9.2,-,N/A,,Clear,190,2013-04-28 20:15:00
3:35 PM,69.8,50.0,49,29.87,10.0,SSE,12.7,-,N/A,,Clear,160,2013-04-28 20:35:00
3:55 PM,71.6,50.0,46,29.85,10.0,SSE,9.2,-,N/A,,Clear,160,2013-04-28 20:55:00
4:15 PM,71.6,51.8,50,29.84,10.0,SSE,11.5,-,N/A,,Clear,160,2013-04-28 21:15:00
4:35 PM,71.6,50.0,46,29.83,10.0,South,10.4,-,N/A,,Clear,170,2013-04-28 21:35:00
4:55 PM,71.6,50.0,46,29.82,10.0,SSE,10.4,-,N/A,,Clear,160,2013-04-28 21:55:00
5:15 PM,71.6,50.0,46,29.82,10.0,South,9.2,-,N/A,,Clear,170,2013-04-28 22:15:00
5:35 PM,71.6,50.0,46,29.81,10.0,South,10.4,16.1,N/A,,Clear,170,2013-04-28 22:35:00
5:55 PM,71.6,50.0,46,29.81,10.0,South,11.5,-,N/A,,Clear,180,2013-04-28 22:55:00
6:15 PM,71.6,50.0,46,29.80,10.0,SSE,8.1,-,N/A,,Clear,160,2013-04-28 23:15:00
6:35 PM,71.6,51.8,50,29.80,10.0,SSE,8.1,-,N/A,,Clear,160,2013-04-28 23:35:00
6:55 PM,71.6,51.8,50,29.80,10.0,SSE,8.1,-,N/A,,Clear,160,2013-04-28 23:55:00
7:15 PM,71.6,51.8,50,29.80,10.0,SSE,8.1,-,N/A,,Clear,160,2013-04-29 00:15:00
7:35 PM,69.8,51.8,53,29.80,10.0,SE,5.8,-,N/A,,Clear,140,2013-04-29 00:35:00
7:55 PM,69.8,51.8,53,29.81,10.0,SSE,5.8,-,N/A,,Clear,150,2013-04-29 00:55:00
8:15 PM,68.0,53.6,60,29.81,10.0,SSE,5.8,-,N/A,,Clear,150,2013-04-29 01:15:00
8:35 PM,66.2,53.6,64,29.81,10.0,SE,5.8,-,N/A,,Clear,140,2013-04-29 01:35:00
8:55 PM,64.4,53.6,68,29.81,10.0,SE,5.8,-,N/A,,Clear,140,2013-04-29 01:55:00
9:15 PM,64.4,53.6,68,29.82,10.0,SE,5.8,-,N/A,,Clear,130,2013-04-29 02:15:00
9:55 PM,62.6,53.6,72,29.82,10.0,SE,5.8,-,N/A,,Clear,140,2013-04-29 02:55:00
10:15 PM,62.6,53.6,72,29.82,10.0,ESE,4.6,-,N/A,,Clear,120,2013-04-29 03:15:00
10:35 PM,60.8,53.6,77,29.82,10.0,ESE,5.8,-,N/A,,Clear,120,2013-04-29 03:35:00
10:55 PM,60.8,51.8,72,29.82,10.0,SE,4.6,-,N/A,,Clear,130,2013-04-29 03:55:00
11:15 PM,60.8,51.8,72,29.82,10.0,SE,3.5,-,N/A,,Clear,130,2013-04-29 04:15:00
11:35 PM,60.8,51.8,72,29.82,10.0,SE,3.5,-,N/A,,Clear,140,2013-04-29 04:35:00
11:55 PM,59.0,51.8,77,29.82,10.0,SE,3.5,-,N/A,,Clear,130,2013-04-29 04:55:00